Location: Naloco
(16.5478°S, 37.1017°E)
Time: 01:38:10
(UTC+00:00)

CORIOLIS - Pass Details

Date: 13 August 2020
Orbit: 817 x 839 km, 98.7° (Epoch: 23 September)

Event Time Altitude Azimuth Distance (km) Brightness Sun altitude
Rises 15:33:40 0° 164° (SSE) 3,382 7.0 -3.4°
Reaches altitude 10° 15:36:02 10° 161° (SSE) 2,447 6.3 -4.0°
Maximum altitude 15:41:26 68° 78° (ENE) 898 4.2 -5.2°
Drops below altitude 10° 15:46:48 10° 355° (N) 2,437 6.9 -6.5°
Sets 15:49:10 0° 353° (N) 3,368 7.6 -7.0°
